Location: Godiavel Galaoual
(15.2485°N, 12.6604°W)
Time: 00:42:02
(UTC+00:00)

Explorer 7 - Pass Details

Date: 23 June 2021
Orbit: 484 x 676 km, 50.3° (Epoch: 29 July)

Event Time Altitude Azimuth Distance (km) Brightness Sun altitude
Rises 19:00:49 0° 245° (WSW) 2,921 11.2 4.3°
Reaches altitude 10° 19:03:26 10° 258° (WSW) 2,041 10.8 3.7°
Maximum altitude 19:07:19 25° 314° (NW) 1,330 10.0 2.8°
Drops below altitude 10° 19:11:18 10° 9° (N) 2,095 10.0 1.9°
Sets 19:14:03 0° 22° (NNE) 3,015 10.6 1.3°
